Home > Weather > Remscheid > Past weeks

Flag for Germany Past Weather in Remscheid, North Rhine-Westphalia, Germany — Yesterday and Last 2 Weeks

Now
68 °F

Partly sunny.


Feels Like: 68 °F
Forecast: 57 / 64 °F
Wind: 17 mph from Southwest

Location: Duesseldorf

Current Time: Jun 29, 2016 at 4:30:10 PM

Latest Report: Jun 29, 2016 at 3:50 PM


Visibility: N/A

Pressure: 29.92 "Hg

Humidity: 53%

Dew Point: 50 °F

Location of RemscheidLocation

Past Weather in Remscheid — Graph

°F

Remscheid Temperature Yesterday

Maximum temperature yesterday: 73 °F (at 4:20 PM)
Minimum temperature yesterday: 55 °F (at 12:20 AM)
Average temperature yesterday: 64 °F

High & Low Weather Summary for the Past Weeks

 TemperatureHumidityPressure
High91 °F (Jun 23, 3:20 PM)100% (Jun 15, 11:20 PM)30.27 "Hg (Jun 15, 11:20 PM)
Low50 °F (Jun 16, 2:20 AM)44% (Jun 23, 5:20 PM)29.45 "Hg (Jun 14, 6:20 PM)
Average63 °F83%29.95 "Hg
* Reported Jun 14 3:20 PM — Jun 29 3:20 PM, Remscheid, Weather by CustomWeather, © 2016

Note: Actual official high and low records may vary slightly from our data, if they occured in-between our weather recording intervals... More about our weather records

Advertising

Remscheid Weather History for the Previous 24 Hours

Scroll right to see more
 ConditionsComfort  
Time TempWeatherWind HumidityBarometerVisibility
3:20 PM
Wed, Jun 29
68 °FPartly sunny.17 mph56%29.92 "HgN/A
2:50 PM70 °FPartly sunny.16 mph53%29.92 "HgN/A
2:20 PM68 °FPartly sunny.16 mph56%29.92 "HgN/A
1:50 PM66 °FPartly sunny.16 mph60%29.92 "HgN/A
1:20 PM66 °FPartly sunny.16 mph60%29.92 "HgN/A
12:50 PM66 °FPartly sunny.17 mph64%29.92 "HgN/A
12:20 PM64 °FScattered clouds.16 mph64%29.92 "HgN/A
11:50 AM63 °FScattered clouds.18 mph68%29.92 "HgN/A
11:20 AM63 °FScattered clouds.20 mph73%29.92 "HgN/A
10:50 AM63 °FPartly sunny.18 mph68%29.92 "HgN/A
10:20 AM63 °FPartly sunny.21 mph73%29.89 "HgN/A
9:50 AM59 °FPartly sunny.21 mph77%29.92 "HgN/A
9:20 AM59 °FPartly sunny.18 mph77%29.89 "HgN/A
8:50 AM61 °FScattered clouds.18 mph77%29.89 "HgN/A
8:20 AM59 °FBroken clouds.14 mph82%29.89 "HgN/A
7:50 AM57 °FSprinkles. Broken clouds.14 mph88%29.89 "HgN/A
7:20 AM57 °FBroken clouds.12 mph94%29.89 "HgN/A
6:50 AM59 °FScattered clouds.15 mph88%29.86 "HgN/A
6:20 AM59 °FPassing clouds.13 mph88%29.86 "HgN/A
5:50 AM59 °FPassing clouds.9 mph94%29.86 "HgN/A
5:20 AM59 °FPartly cloudy.6 mph94%29.83 "HgN/A
4:50 AM59 °FPartly cloudy.3 mph94%29.83 "HgN/A
4:20 AM61 °FPartly cloudy.7 mph94%29.83 "HgN/A
3:50 AM61 °FPartly cloudy.9 mph94%29.83 "HgN/A
3:20 AM61 °FSprinkles. Partly cloudy.14 mph100%29.83 "HgN/A
2:50 AM61 °FSprinkles. Partly cloudy.13 mph94%29.83 "HgN/A
2:20 AM61 °FPartly cloudy.8 mph100%29.83 "HgN/A
1:50 AM61 °FSprinkles. Passing clouds.8 mph100%29.83 "HgN/A
1:20 AM61 °FRain showers. Passing clouds.13 mph100%29.83 "HgN/A
12:50 AM63 °FSprinkles. Passing clouds.6 mph88%29.83 "HgN/A
12:20 AM63 °FLight rain. Partly cloudy.8 mph83%29.86 "HgN/A
11:50 PM
Tue, Jun 28
66 °FPartly cloudy.8 mph68%29.86 "HgN/A
11:20 PM64 °FClear.6 mph73%29.86 "Hg10 mi
10:50 PM66 °FSunny.6 mph68%29.89 "Hg10 mi
10:20 PM64 °FSunny.6 mph73%29.89 "Hg10 mi
9:50 PM66 °FSunny.6 mph68%29.89 "Hg10 mi
9:20 PM68 °FSunny.6 mph64%29.89 "Hg10 mi
8:50 PM68 °FSunny.6 mph60%29.89 "Hg10 mi
8:20 PM70 °FPartly sunny.9 mph57%29.89 "HgN/A
7:50 PM70 °FPartly sunny.9 mph57%29.92 "HgN/A
7:20 PM70 °FPartly sunny.7 mph60%29.92 "HgN/A
6:20 PM72 °FScattered clouds.10 mph53%29.92 "HgN/A
5:50 PM73 °FScattered clouds.9 mph50%29.95 "HgN/A
5:20 PM72 °FScattered clouds.9 mph50%29.95 "HgN/A
4:50 PM73 °FScattered clouds.7 mph47%29.95 "HgN/A
4:20 PM73 °FScattered clouds.7 mph50%29.98 "HgN/A
Weather by CustomWeather, © 2016

See weather overviewHow to use our weather pages